COSMOS 1275 DEB, 12652

Orbit data source: Space-Track

COSMOS 1275 DEB, 12652 is space debris in LEO originally from a launch on Thu, 04 Jun 1981 UTC launched from the Plesetsk Missile And Space Complex (PKMTR). Debris objects in space refer to the collection of defunct objects orbiting the Earth. Examples of debris include non-operational satellites, rocket bodies, and fragments generated from explosions, collisions, or faulty payload assembly.

Loading next visibility...
Identifier
12652, 1981-053G
Orbit
LEO
Country
Flag of CISCIS
Related business
Manufacturer
Unknown
Mission
Spacecraft
Bus & Motor
Unknown
Mass
Unknown
Launch date (UTC)
1981-06-04 (45 years ago)
Launch vehicle
Unknown
Launch site
Plesetsk Missile And Space Complex (PKMTR)
Object type
Payload
Rocket body
Debris
Shape & HBR
Unknown shape, 0.1 m
Radar Cross Section
Small (<0.1 m²)

Expand to show TLE details & history
Last TLE update: 15 hours ago

TLE from 15 hours ago
0 COSMOS 1275 DEB
1 12652U 81053G   25340.73885617  .00003592  00000-0  23048-2 0  9990
2 12652  82.9372 146.0005 0052447 177.4477 201.2075 14.02324713168902
Epoch: 2025-12-06T17:43Z
TLE epoch observation values (Epoch: 2025-12-06T17:43:57.173Z)
Latitude
18.28741°
Longitude
166.58436°
Altitude
923.705 km
Speed
7.373 km/s
True Right ascension
09h 53m 20s
True Declination
18° 11' 15"
Sunlit
Object was in daylight at epoch
Visualization orbit readout
Latitude
Unknown
Longitude
Unknown
Altitude
Unknown
Speed
Unknown
Apparent Right ascension
Unknown
Apparent Declination
Unknown
Sunlit
N/A
Visualization observer readout
Local Sidereal Time
06:19:27
Azimuth
Unknown
Elevation
Unknown
Doppler factor
Unknown
Orbital elements
Apogee altitude
920.949 km
Perigee altitude
844.786 km
Semi-major axis
7,261.004 km
Eccentricity
0.00524
Inclination
82.9372°
RAAN
146.0005°
Arg. of periapsis
177.4477°
True anomaly
200.99141°
Mean anomaly
201.2075°
Eccentric anomaly
201.09932°
Mean motion
3.50791 °/min
Orbital period
102.63 mins
BSTAR
0.0023048
Loading maneuver chart data...
Computing Atmospheric mass density...

Documentation

Showing up to 5 results
|